This is the latest recevied weather packets stored in our database for station/object DL5ARK. If no packets are shown the sender has not sent any weather packets the latest 10 day(s).
| Time | Temp. | Humidity | Pressure | Rain* | Wind** | Luminosity | Snow |
|---|---|---|---|---|---|---|---|
| 1778007827 | 12.22° C | 80% | 993.4 hPa | 0 mm | - | - | - |
| 1778007470 | 12.22° C | 80% | 993.4 hPa | 0 mm | - | - | - |
| 1778006928 | 12.22° C | 81% | 993.4 hPa | 0 mm | - | - | - |
| 1778006568 | 12.78° C | 80% | 993.6 hPa | 0 mm | - | - | - |
| 1778006390 | 12.22° C | 80% | 993.9 hPa | 0 mm | - | - | - |
| 1778006207 | 12.78° C | 80% | 993.9 hPa | 0 mm | - | - | - |
| 1778006028 | 12.22° C | 80% | 993.9 hPa | 0 mm | - | - | - |
| 1778005847 | 12.22° C | 78% | 993.9 hPa | 0 mm | - | - | - |
| 1778005670 | 12.78° C | 78% | 993.9 hPa | 0 mm | - | - | - |
| 1778005128 | 12.78° C | 78% | 994.1 hPa | 0 mm | - | - | - |
| 1778004947 | 12.78° C | 78% | 993.9 hPa | 0 mm | - | - | - |
| 1778004767 | 12.78° C | 78% | 993.9 hPa | 0 mm | - | - | - |
| 1778004588 | 12.78° C | 78% | 993.9 hPa | 0 mm | - | - | - |
| 1778004227 | 12.78° C | 78% | 993.9 hPa | 0 mm | - | - | - |
| 1778002968 | 14.44° C | 77% | 993.4 hPa | 0 mm | - | - | - |
| 1778002788 | 15° C | 76% | 993.4 hPa | 0 mm | - | - | - |
| 1778002607 | 15° C | 73% | 993.4 hPa | 0 mm | - | - | - |
| 1778002248 | 15° C | 74% | 992.4 hPa | 0 mm | - | - | - |
| 1778002067 | 15° C | 74% | 992.1 hPa | 0 mm | - | - | - |
| 1778001887 | 15° C | 73% | 991.9 hPa | 0 mm | - | - | - |
| 1778001707 | 15.56° C | 73% | 991.9 hPa | 0 mm | - | - | - |
| 1778001527 | 15.56° C | 73% | 991.9 hPa | 0 mm | - | - | - |
| 1778001347 | 15.56° C | 72% | 991.9 hPa | 0 mm | - | - | - |
| 1778001170 | 16.11° C | 72% | 991.9 hPa | 0 mm | - | - | - |
| 1778000987 | 16.11° C | 72% | 991.9 hPa | 0 mm | - | - | - |
* Rain latest hour (hover to see other rain measurements)
** Current wind speed in m/s (hover to see current wind gust speed)